Location: ActonStarParty
(42.4766°N, 71.4538°W)
Time: 01:30:00
(UTC-04:00)

ISS - Visible Passes

Search period start: 16 April 2014 00:00
Search period end: 26 April 2014 00:00
Orbit: 415 x 420 km, 51.6° (Epoch: 15 April)

Date Brightness Start Highest point End Pass type
(mag) Time Alt. Az. Time Alt. Az. Time Alt. Az.
16 Apr -0.8 19:53:08 10° NW 19:55:25 17° N 19:57:43 10° NE visible
16 Apr -1.7 21:30:03 10° NW 21:32:59 27° NNE 21:33:13 27° NNE visible
17 Apr -1.3 20:41:51 10° NW 20:44:33 22° NNE 20:46:48 12° ENE visible
17 Apr -0.8 22:18:19 10° NW 22:19:43 23° NW 22:19:43 23° NW visible
18 Apr -2.7 21:30:03 10° NW 21:33:16 51° NNE 21:33:16 51° NNE visible
19 Apr -2.1 20:41:47 10° NW 20:44:55 35° NNE 20:46:49 19° E visible
19 Apr -0.7 22:18:33 10° WNW 22:19:43 19° W 22:19:43 19° W visible
20 Apr -3.1 21:30:01 10° WNW 21:33:15 62° SW 21:33:15 62° SW visible
21 Apr -3.3 20:41:34 10° NW 20:44:56 77° NNE 20:46:48 24° ESE visible
21 Apr -0.2 22:19:32 10° W 22:19:42 11° WSW 22:19:42 11° WSW visible
22 Apr -1.5 21:30:16 10° W 21:32:59 23° SW 21:33:16 22° SW visible
23 Apr -2.2 20:41:26 10° WNW 20:44:35 38° SW 20:46:51 16° SSE visible
25 Apr -0.7 20:41:56 10° W 20:43:52 15° SW 20:45:47 10° SSW visible
